This is the latest recevied weather packets stored in our database for station/object N4OOJ-13. If no packets are shown the sender has not sent any weather packets the latest 10 day(s).
| Time | Temp. | Humidity | Pressure | Rain* | Wind** | Luminosity | Snow |
|---|---|---|---|---|---|---|---|
| 1777814427 | 17.22° C | 87% | 1021.7 hPa | 0 mm | - | - | - |
| 1777813823 | 16.11° C | 89% | 1021.7 hPa | 0 mm | - | - | - |
| 1777813215 | 16.11° C | 89% | 1021.8 hPa | 0 mm | - | - | - |
| 1777812622 | 15° C | 93% | 1021.9 hPa | 0 mm | - | - | - |
| 1777812016 | 13.89° C | 96% | 1021.7 hPa | 0 mm | - | - | - |
| 1777811429 | 12.78° C | 99% | 1021.6 hPa | 0 mm | - | - | - |
| 1777810829 | 12.22° C | 99% | 1021.5 hPa | 0 mm | - | - | - |
| 1777810224 | 11.11° C | 99% | 1021.4 hPa | 0 mm | - | - | - |
| 1777809619 | 10° C | 99% | 1021.4 hPa | 0 mm | - | - | - |
| 1777809032 | 9.44° C | 99% | 1021.4 hPa | 0 mm | - | - | - |
| 1777808426 | 8.33° C | 99% | 1021.2 hPa | 0 mm | - | - | - |
| 1777807821 | 7.22° C | 99% | 1020.9 hPa | 0 mm | - | - | - |
| 1777807221 | 6.67° C | 99% | 1020.6 hPa | 0 mm | - | - | - |
| 1777806615 | 6.67° C | 99% | 1020.5 hPa | 0 mm | - | - | - |
| 1777806022 | 6.67° C | 99% | 1020.3 hPa | 0 mm | - | - | - |
| 1777805417 | 6.67° C | 99% | 1020.2 hPa | 0.25 mm | - | - | - |
| 1777804817 | 6.67° C | 99% | 1020.1 hPa | 0.25 mm | - | - | - |
| 1777804228 | 6.67° C | 99% | 1019.9 hPa | 0.25 mm | - | - | - |
| 1777803627 | 7.22° C | 99% | 1019.7 hPa | 0.25 mm | - | - | - |
| 1777803027 | 7.22° C | 99% | 1019.7 hPa | 0.25 mm | - | - | - |
| 1777802426 | 6.67° C | 99% | 1019.7 hPa | 0.25 mm | - | - | - |
| 1777801824 | 7.22° C | 99% | 1019.6 hPa | 0 mm | - | - | - |
| 1777801219 | 7.22° C | 99% | 1019.5 hPa | 0 mm | - | - | - |
| 1777800625 | 7.22° C | 99% | 1019.3 hPa | 0 mm | - | - | - |
| 1777800020 | 7.78° C | 99% | 1019.2 hPa | 0 mm | - | - | - |
* Rain latest hour (hover to see other rain measurements)
** Current wind speed in m/s (hover to see current wind gust speed)